Location: Graswijk
(52.9667°N, 6.5500°E)
Time: 22:12:26
(UTC+00:00)

Geosat - Pass Details

Date: 15 May 2026
Orbit: 758 x 760 km, 108.0° (Epoch: 10 June)

Event Time Altitude Azimuth Distance (km) Brightness Sun altitude
Rises 22:24:47 0° 32° (NNE) 3,232 7.9 -16.6°
Reaches altitude 10° 22:27:05 10° 33° (NNE) 2,302 7.0 -16.7°
Maximum altitude 22:32:06 82° 121° (ESE) 774 3.9 -16.9°
Enters shadow 22:35:40 20° 209° (SSW) 1,717 5.4 -17.0°
